K5TCS Weather Reports


Display with metric or nautical units.
time (UTC)temp
F
wind
direction
speed
MPH
gust
MPH
rain 1hr
in
rain 24hr
in
rain mn
in
humidity
%
barometer
mb
20260506212017 66 270 5.0 17.0 0.00 0.00 0.00 23 1020.1
20260506211016 67 225 5.0 14.0 0.00 0.00 0.00 24 1020.8
20260506210056 66 225 4.0 13.0 0.00 0.00 0.00 25 1020.4
20260506205016 64 270 8.0 16.0 0.00 0.00 0.00 24 1019.7
20260506204016 64 315 8.0 17.0 0.00 0.00 0.00 20 1020.3
20260506203016 65 225 8.0 18.0 0.00 0.00 0.00 22 1020.6
20260506202016 64 270 6.0 16.0 0.00 0.00 0.00 25 1020.4
20260506201036 64 270 6.0 13.0 0.00 0.00 0.00 23 1020.4
20260506200016 66 225 5.0 17.0 0.00 0.00 0.00 21 1021.1
20260506195016 64 203 7.0 18.0 0.00 0.00 0.00 24 1020.3
20260506194036 64 225 6.0 16.0 0.00 0.00 0.00 23 1020.9
20260506193016 65 225 7.0 17.0 0.00 0.00 0.00 23 1020.8
20260506192016 64 225 5.0 18.0 0.00 0.00 0.00 24 1020.7
20260506191036 65 203 5.0 14.0 0.00 0.00 0.00 25 1021.4
20260506190016 63 270 6.0 13.0 0.00 0.00 0.00 24 1021.2
20260506185016 63 248 7.0 17.0 0.00 0.00 0.00 25 1021.3
20260506184056 63 225 6.0 13.0 0.00 0.00 0.00 23 1021.4
20260506183016 63 248 5.0 16.0 0.00 0.00 0.00 26 1021.3
20260506182016 62 225 5.0 15.0 0.00 0.00 0.00 26 1021.6
20260506181016 62 248 6.0 16.0 0.00 0.00 0.00 27 1021.5
20260506180016 62 203 6.0 15.0 0.00 0.00 0.00 27 1021.4
20260506175016 62 225 6.0 13.0 0.00 0.00 0.00 28 1021.5
20260506174056 61 270 6.0 19.0 0.00 0.00 0.00 30 1021.5
20260506173036 60 248 5.0 14.0 0.00 0.00 0.00 30 1021.3
20260506172016 60 225 6.0 15.0 0.00 0.00 0.00 29 1021.3
20260506171016 60 203 7.0 15.0 0.00 0.00 0.00 27 1020.9
20260506170036 60 225 5.0 12.0 0.00 0.00 0.00 31 1021.1
20260506165016 59 203 7.0 15.0 0.00 0.00 0.00 31 1021.2
20260506164035 58 270 7.0 16.0 0.00 0.00 0.00 29 1021.2
20260506163015 59 225 6.0 15.0 0.00 0.00 0.00 30 1021.1
20260506162017 58 270 5.0 15.0 0.00 0.00 0.00 30 1021.0
20260506161038 56 270 8.0 18.0 0.00 0.00 0.00 29 1020.4
20260506160017 56 248 8.0 17.0 0.00 0.00 0.00 30 1020.2
20260506155017 56 225 7.0 17.0 0.00 0.00 0.00 31 1020.3
20260506154017 56 270 6.0 17.0 0.00 0.00 0.00 33 1020.3
20260506153017 55 225 6.0 13.0 0.00 0.00 0.00 34 1019.9
20260506152037 55 225 7.0 18.0 0.00 0.00 0.00 35 1019.9
20260506151018 54 248 7.0 20.0 0.00 0.00 0.00 37 1019.9
20260506150017 53 270 7.0 14.0 0.00 0.00 0.00 37 1019.9
20260506145017 53 270 6.0 14.0 0.00 0.00 0.00 39 1019.8
20260506144037 52 225 7.0 16.0 0.00 0.00 0.00 41 1019.4
20260506143017 52 248 8.0 19.0 0.00 0.00 0.00 42 1019.3
20260506142017 52 248 6.0 15.0 0.00 0.00 0.00 43 1019.5
20260506141037 51 225 7.0 16.0 0.00 0.00 0.00 45 1019.2
20260506140017 50 225 4.0 12.0 0.00 0.00 0.00 48 1019.0
20260506135037 50 203 4.0 17.0 0.00 0.00 0.00 49 1018.9
20260506134017 49 293 2.0 7.0 0.00 0.00 0.00 51 1019.2
20260506133017 48 225 2.0 7.0 0.00 0.00 0.00 53 1019.1
20260506132037 47 203 1.0 5.0 0.00 0.00 0.00 54 1018.5
20260506131037 46 225 1.0 4.0 0.00 0.00 0.00 55 1018.3
20260506130037 46 225 1.0 5.0 0.00 0.00 0.00 56 1018.2
20260506125017 45 0.0 7.0 0.00 0.00 0.00 57 1018.1
20260506124017 44 0.0 4.0 0.00 0.00 0.00 58 1017.5
20260506123017 45 0.0 3.0 0.00 0.00 0.00 57 1017.4
20260506122017 45 0.0 1.0 0.00 0.00 0.00 57 1017.8
20260506121017 45 0.0 2.0 0.00 0.00 0.00 56 1017.8
20260506120017 46 225 1.0 5.0 0.00 0.00 0.00 56 1018.0
20260506115017 45 0.0 4.0 0.00 0.00 0.00 56 1017.4
20260506114017 46 0.0 3.0 0.00 0.00 0.00 56 1017.7
20260506113017 46 293 1.0 4.0 0.00 0.00 0.00 56 1017.8
20260506112017 46 0.0 7.0 0.00 0.00 0.00 56 1017.7
20260506111017 47 0.0 3.0 0.00 0.00 0.00 55 1018.2
20260506110017 47 0.0 6.0 0.00 0.00 0.00 54 1018.3
20260506105037 47 0.0 5.0 0.00 0.00 0.00 54 1018.3
20260506104017 47 0.0 3.0 0.00 0.00 0.00 55 1017.6
20260506103017 47 0.0 4.0 0.00 0.00 0.00 54 1017.8
20260506102037 47 203 1.0 5.0 0.00 0.00 0.00 54 1017.7
20260506101037 47 203 1.0 6.0 0.00 0.00 0.00 53 1017.6
20260506100037 48 248 2.0 7.0 0.00 0.00 0.00 52 1017.5
20260506095016 48 270 2.0 7.0 0.00 0.00 0.00 52 1017.3
20260506094016 48 248 3.0 10.0 0.00 0.00 0.00 52 1016.7
20260506093037 48 248 3.0 10.0 0.00 0.00 0.00 53 1016.7
20260506092017 47 270 3.0 9.0 0.00 0.00 0.00 53 1016.6
20260506091016 47 270 2.0 7.0 0.00 0.00 0.00 53 1015.0
20260506090016 48 225 2.0 6.0 0.00 0.00 0.00 52 1015.0
20260506085037 47 248 1.0 7.0 0.00 0.00 0.00 52 1014.8
20260506084016 48 0.0 6.0 0.00 0.00 0.00 50 1016.6
20260506083016 48 0.0 3.0 0.00 0.00 0.00 48 1016.7
20260506082016 49 225 1.0 4.0 0.00 0.00 0.00 48 1017.1
20260506081036 49 203 1.0 5.0 0.00 0.00 0.00 47 1016.6
20260506073016 49 225 2.0 6.0 0.00 0.00 0.00 47 1016.8
20260506072016 50 203 3.0 10.0 0.00 0.00 0.00 47 1017.2
20260506071016 50 203 3.0 6.0 0.00 0.00 0.00 45 1017.6
20260506062016 52 203 3.0 10.0 0.00 0.00 0.00 44 1017.7
20260506061016 52 203 4.0 7.0 0.00 0.00 0.00 44 1017.7
20260506051015 53 203 4.0 10.0 0.00 0.00 0.00 45 1017.5
20260506045038 53 225 3.0 6.0 0.00 0.00 0.00 47 1017.5
20260506044017 53 203 4.0 10.0 0.00 0.00 0.00 47 1016.9
20260506043017 54 203 4.0 11.0 0.00 0.00 0.00 47 1016.9
20260506042037 54 203 4.0 9.0 0.00 0.00 0.00 47 1016.9
20260506041018 54 203 3.0 10.0 0.00 0.00 0.00 48 1016.7
20260506040017 54 203 3.0 7.0 0.00 0.00 0.00 48 1016.7
20260506035017 54 203 3.0 10.0 0.00 0.00 0.00 47 1016.4
20260506034017 54 203 4.0 10.0 0.00 0.00 0.00 47 1016.4
20260506033017 54 203 4.0 11.0 0.00 0.00 0.00 46 1016.2
20260506032017 54 203 4.0 10.0 0.00 0.00 0.00 46 1016.1
20260506031018 54 203 5.0 12.0 0.00 0.00 0.00 46 1015.4
20260506030037 54 225 5.0 14.0 0.00 0.00 0.00 47 1015.1
20260506025017 55 248 6.0 15.0 0.00 0.00 0.00 46 1015.0
20260506024017 55 225 7.0 16.0 0.00 0.00 0.00 46 1014.9
20260506023017 55 203 6.0 12.0 0.00 0.00 0.00 46 1014.9
20260506022017 55 225 6.0 13.0 0.00 0.00 0.00 46 1014.7
20260506021017 55 203 6.0 17.0 0.00 0.00 0.00 47 1014.6
20260506020017 55 203 7.0 17.0 0.00 0.00 0.00 47 1014.3
20260506015017 55 203 6.0 15.0 0.00 0.00 0.00 48 1014.3
20260506014017 56 203 6.0 13.0 0.00 0.00 0.00 48 1014.5
20260506013017 56 203 7.0 15.0 0.00 0.00 0.00 48 1014.2
20260506012017 56 203 5.0 12.0 0.00 0.00 0.00 48 1014.3
20260506011037 56 203 7.0 15.0 0.00 0.00 0.00 48 1014.1
20260506010017 57 203 10.0 22.0 0.00 0.00 0.00 47 1014.0
20260506005037 57 203 7.0 18.0 0.00 0.00 0.00 47 1013.9
20260506004037 57 225 9.0 20.0 0.00 0.00 0.00 47 1014.3
20260506003017 57 225 9.0 22.0 0.00 0.00 0.00 47 1014.1
20260506002017 57 203 9.0 19.0 0.00 0.00 0.00 47 1014.1
20260506001017 57 203 11.0 26.0 0.00 0.00 0.00 48 1014.2
20260506000017 58 203 10.0 22.0 0.00 0.00 0.00 46 1013.7
20260505235017 58 225 8.0 18.0 0.00 0.00 0.00 47 1014.1
20260505234017 58 225 9.0 18.0 0.00 0.00 0.00 46 1014.1
20260505233017 59 203 9.0 22.0 0.00 0.00 0.00 46 1014.5
20260505232017 59 203 11.0 27.0 0.00 0.00 0.00 45 1014.3
20260505231017 59 225 11.0 23.0 0.00 0.00 0.00 45 1014.3
20260505230021 59 225 11.0 24.0 0.00 0.00 0.00 45 1014.3
20260505225016 59 203 14.0 25.0 0.00 0.00 0.00 45 1014.5
20260505224016 61 225 12.0 25.0 0.00 0.00 0.00 43 1015.0
20260505223037 61 203 10.0 21.0 0.00 0.00 0.00 44 1015.2
20260505222017 61 225 13.0 24.0 0.00 0.00 0.00 44 1014.9
20260505221016 59 203 14.0 23.0 0.00 0.00 0.00 45 1014.7
20260505220037 59 203 13.0 25.0 0.00 0.00 0.00 46 1014.8
20260505215016 59 225 13.0 29.0 0.00 0.00 0.00 46 1015.1
20260505214016 59 203 12.0 25.0 0.00 0.00 0.00 47 1015.1
20260505213016 60 203 12.0 26.0 0.00 0.00 0.00 45 1015.1